Alpengasthof Waldrast Koralpe
Wetterdaten: aktuell Montag, 17.05.2021 20:09
Datum Zeit Temp. I. Temp. A. Feuchte I. Feuchte A. Luftdruck Regen Wind Richtung Richtung Taupunkt Windchill
17.05.2021 20:09 16,0 C 4,9 C 30 % 20 % 1006,1 hPa 0,0 l/m 3,1 km/h S-SW22.5 205 -16,1 C 4,9 C
17.05.2021 20:04 16,0 C 5,1 C 30 % 20 % 1006,0 hPa 0,0 l/m 8,9 km/h SW 230 -16,0 C 3,0 C
17.05.2021 19:59 16,2 C 5,2 C 30 % 20 % 1005,9 hPa 0,0 l/m 6,8 km/h SW 230 -15,9 C 3,7 C
17.05.2021 19:54 16,2 C 5,2 C 30 % 20 % 1005,9 hPa 0,0 l/m 3,5 km/h SW 225 -15,9 C 5,2 C
17.05.2021 19:49 16,2 C 5,6 C 30 % 20 % 1005,7 hPa 0,0 l/m 4,6 km/h SW 215 -15,5 C 4,9 C
17.05.2021 19:44 16,2 C 5,8 C 30 % 20 % 1005,6 hPa 0,0 l/m 5,9 km/h SW22.5 220 -15,4 C 4,7 C
17.05.2021 19:39 16,3 C 5,6 C 30 % 20 % 1005,7 hPa 0,0 l/m 0,7 km/h SW 225 -15,5 C 5,6 C
17.05.2021 19:34 16,3 C 5,9 C 29 % 20 % 1005,5 hPa 0,0 l/m 4,7 km/h S-SW22.5 210 -15,3 C 5,2 C
17.05.2021 19:29 16,4 C 5,8 C 29 % 20 % 1005,6 hPa 0,0 l/m 8,6 km/h SW22.5 220 -15,4 C 3,9 C
17.05.2021 19:24 16,5 C 6,0 C 28 % 20 % 1005,5 hPa 0,0 l/m 0,0 km/h S67.5 185 -15,2 C 6,0 C
17.05.2021 19:19 16,5 C 6,2 C 28 % 20 % 1005,3 hPa 0,0 l/m 4,8 km/h S22.5 185 -15,0 C 5,5 C
17.05.2021 19:14 16,6 C 6,3 C 28 % 20 % 1005,3 hPa 0,0 l/m 6,2 km/h SW22.5 225 -15,0 C 5,2 C
17.05.2021 19:09 16,5 C 6,2 C 29 % 20 % 1005,3 hPa 0,0 l/m 0,0 km/h NW45 310 -15,0 C 6,2 C
17.05.2021 19:04 16,4 C 6,3 C 30 % 20 % 1005,3 hPa 0,0 l/m 0,0 km/h N45 355 -15,0 C 6,3 C
17.05.2021 18:59 16,4 C 6,4 C 30 % 20 % 1005,2 hPa 0,0 l/m 14,2 km/h SW 215 -14,9 C 3,6 C
17.05.2021 18:54 16,4 C 7,1 C 29 % 20 % 1003,6 hPa 0,0 l/m 14,2 km/h SW 215 -14,3 C 4,5 C
17.05.2021 18:49 16,4 C 6,4 C 30 % 20 % 1004,0 hPa 0,0 l/m 0,6 km/h SW22.5 230 -14,9 C 6,4 C
17.05.2021 18:44 16,4 C 6,4 C 31 % 20 % 1004,0 hPa 0,0 l/m 6,4 km/h S-SW22.5 210 -14,9 C 5,2 C
17.05.2021 18:39 16,4 C 6,1 C 31 % 20 % 1004,2 hPa 0,0 l/m 8,1 km/h SW22.5 230 -15,1 C 4,4 C
17.05.2021 18:34 16,3 C 5,9 C 31 % 20 % 1004,3 hPa 0,0 l/m 11,0 km/h SW22.5 230 -15,3 C 3,5 C
17.05.2021 18:29 16,4 C 6,4 C 31 % 20 % 1004,0 hPa 0,0 l/m 9,0 km/h SW22.5 220 -14,9 C 4,5 C
17.05.2021 18:24 16,5 C 6,0 C 31 % 20 % 1004,3 hPa 0,0 l/m 12,0 km/h SW22.5 220 -15,2 C 3,5 C
17.05.2021 18:19 16,6 C 7,2 C 31 % 20 % 1003,6 hPa 0,0 l/m 15,1 km/h SW22.5 225 -14,2 C 4,4 C
17.05.2021 18:14 16,6 C 6,1 C 30 % 20 % 1004,2 hPa 0,0 l/m 14,6 km/h SW22.5 215 -15,1 C 3,2 C
17.05.2021 18:09 16,6 C 6,2 C 30 % 20 % 1004,2 hPa 0,0 l/m 1,0 km/h SW22.5 220 -15,0 C 6,2 C
17.05.2021 18:04 16,6 C 6,0 C 30 % 20 % 1004,3 hPa 0,0 l/m 0,0 km/h NW67.5 320 -15,2 C 6,0 C
17.05.2021 17:59 16,5 C 6,5 C 32 % 20 % 1004,0 hPa 0,0 l/m 0,0 km/h N22.5 355 -14,8 C 6,5 C
17.05.2021 17:54 16,4 C 5,7 C 32 % 20 % 1004,5 hPa 0,0 l/m 8,3 km/h SW22.5 230 -15,5 C 3,9 C
17.05.2021 17:49 16,3 C 5,3 C 33 % 20 % 1004,7 hPa 0,0 l/m 13,5 km/h SW22.5 220 -15,8 C 2,4 C
17.05.2021 17:44 16,4 C 5,4 C 32 % 20 % 1004,6 hPa 0,0 l/m 11,1 km/h SW45 225 -15,7 C 2,9 C
17.05.2021 17:39 16,5 C 5,4 C 32 % 20 % 1004,6 hPa 0,0 l/m 11,6 km/h SW 225 -15,7 C 2,8 C
17.05.2021 17:34 16,6 C 5,4 C 31 % 20 % 1004,6 hPa 0,0 l/m 8,9 km/h SW22.5 230 -15,7 C 3,4 C
17.05.2021 17:29 16,7 C 5,9 C 31 % 20 % 1004,3 hPa 0,0 l/m 0,9 km/h S-SW22.5 205 -15,3 C 5,9 C
17.05.2021 17:24 16,7 C 6,8 C 30 % 20 % 1003,8 hPa 0,0 l/m 0,0 km/h SW22.5 220 -14,5 C 6,8 C
17.05.2021 17:19 16,8 C 7,0 C 30 % 20 % 1003,7 hPa 0,0 l/m 0,0 km/h SW 215 -14,4 C 7,0 C
17.05.2021 17:14 16,8 C 7,9 C 31 % 20 % 1003,1 hPa 0,0 l/m 2,1 km/h SW22.5 225 -13,6 C 7,9 C
17.05.2021 17:09 16,8 C 8,2 C 30 % 20 % 1003,0 hPa 0,0 l/m 7,6 km/h SW22.5 225 -13,4 C 7,0 C
17.05.2021 17:04 16,7 C 8,9 C 31 % 20 % 1002,5 hPa 0,0 l/m 8,9 km/h SW22.5 220 -12,8 C 7,5 C
17.05.2021 16:59 16,6 C 8,4 C 31 % 20 % 1002,8 hPa 0,0 l/m 0,6 km/h O-SO45 105 -13,2 C 8,4 C
17.05.2021 16:54 16,5 C 8,2 C 32 % 20 % 1003,0 hPa 0,0 l/m 4,0 km/h S-SO67.5 160 -13,4 C 8,2 C
17.05.2021 16:49 16,0 C 5,6 C 33 % 20 % 1004,5 hPa 0,0 l/m 6,4 km/h SW22.5 225 -15,5 C 4,3 C
17.05.2021 16:44 16,0 C 5,6 C 33 % 20 % 1004,5 hPa 0,0 l/m 9,8 km/h S-SW22.5 210 -15,5 C 3,4 C
17.05.2021 16:39 16,0 C 5,3 C 33 % 20 % 1004,7 hPa 0,0 l/m 11,0 km/h SW22.5 225 -15,8 C 2,8 C
17.05.2021 16:34 16,2 C 5,5 C 32 % 20 % 1004,6 hPa 0,0 l/m 8,7 km/h SW22.5 215 -15,6 C 3,5 C
17.05.2021 16:29 16,2 C 5,4 C 32 % 20 % 1004,6 hPa 0,0 l/m 10,6 km/h SW22.5 225 -15,7 C 3,0 C
17.05.2021 16:24 16,4 C 6,0 C 31 % 20 % 1003,1 hPa 0,0 l/m 13,0 km/h S-SW22.5 210 -15,2 C 3,3 C
17.05.2021 16:19 16,6 C 6,4 C 30 % 20 % 1002,8 hPa 0,0 l/m 10,4 km/h SW22.5 225 -14,9 C 4,3 C
17.05.2021 16:14 16,7 C 7,0 C 30 % 20 % 1002,5 hPa 0,0 l/m 7,0 km/h SW22.5 220 -14,4 C 5,7 C
17.05.2021 16:09 16,7 C 6,4 C 30 % 20 % 1002,8 hPa 0,0 l/m 0,0 km/h SW22.5 215 -14,9 C 6,4 C
17.05.2021 16:04 16,7 C 6,4 C 29 % 20 % 1002,8 hPa 0,0 l/m 0,0 km/h NW67.5 325 -14,9 C 6,4 C
17.05.2021 15:59 16,7 C 6,0 C 29 % 20 % 1003,1 hPa 0,0 l/m 0,0 km/h O67.5 80 -15,2 C 6,0 C
17.05.2021 15:54 16,7 C 6,3 C 29 % 20 % 1002,9 hPa 0,0 l/m 0,0 km/h N22.5 360 -15,0 C 6,3 C
17.05.2021 15:49 16,8 C 6,0 C 29 % 20 % 1003,1 hPa 0,0 l/m 0,9 km/h NW 320 -15,2 C 6,0 C
17.05.2021 15:44 16,8 C 6,9 C 29 % 20 % 1002,5 hPa 0,0 l/m 3,1 km/h N45 350 -14,5 C 6,9 C
17.05.2021 15:39 16,9 C 8,3 C 29 % 20 % 1001,7 hPa 0,0 l/m 0,0 km/h W-NW67.5 295 -13,3 C 8,3 C
17.05.2021 15:34 16,9 C 7,4 C 29 % 20 % 1002,3 hPa 0,0 l/m 0,2 km/h N22.5 350 -14,1 C 7,4 C
17.05.2021 15:29 16,9 C 6,9 C 29 % 20 % 1002,5 hPa 0,0 l/m 0,0 km/h N-NO45 20 -14,5 C 6,9 C
17.05.2021 15:24 16,8 C 6,0 C 29 % 20 % 1003,1 hPa 0,0 l/m 0,7 km/h N-NW22.5 340 -15,2 C 6,0 C
17.05.2021 15:19 16,8 C 6,0 C 29 % 20 % 1003,1 hPa 0,0 l/m 1,9 km/h N-NW22.5 345 -15,2 C 6,0 C
17.05.2021 15:14 16,9 C 6,8 C 29 % 20 % 1002,6 hPa 0,0 l/m 0,0 km/h N 350 -14,5 C 6,8 C
17.05.2021 15:09 16,9 C 6,8 C 29 % 20 % 1002,6 hPa 0,0 l/m 0,9 km/h N45 350 -14,5 C 6,8 C
17.05.2021 15:04 16,9 C 7,4 C 29 % 20 % 1002,3 hPa 0,0 l/m 0,0 km/h W67.5 280 -14,1 C 7,4 C
17.05.2021 14:59 17,0 C 10,0 C 28 % 20 % 1000,7 hPa 0,0 l/m 0,1 km/h W22.5 280 -11,9 C 10,0 C
17.05.2021 14:54 16,9 C 8,4 C 29 % 20 % 1001,7 hPa 0,0 l/m 0,9 km/h W67.5 260 -13,2 C 8,4 C
17.05.2021 14:49 16,8 C 8,5 C 28 % 20 % 1001,6 hPa 0,0 l/m 0,0 km/h NW45 325 -13,1 C 8,5 C
17.05.2021 14:44 16,7 C 5,8 C 28 % 20 % 1003,2 hPa 0,0 l/m 0,7 km/h W-NW67.5 300 -15,4 C 5,8 C
17.05.2021 14:39 16,7 C 5,8 C 28 % 20 % 1003,2 hPa 0,0 l/m 0,7 km/h NW67.5 305 -15,4 C 5,8 C
17.05.2021 14:34 16,7 C 5,3 C 28 % 20 % 1003,5 hPa 0,0 l/m 8,9 km/h N22.5 355 -15,8 C 3,3 C
17.05.2021 14:29 16,7 C 5,4 C 28 % 20 % 1003,5 hPa 0,0 l/m 0,0 km/h N22.5 355 -15,7 C 5,4 C
17.05.2021 14:24 16,7 C 5,1 C 28 % 20 % 1003,6 hPa 0,0 l/m 5,9 km/h N 355 -16,0 C 3,9 C
17.05.2021 14:19 16,7 C 5,5 C 28 % 20 % 1003,4 hPa 0,0 l/m 5,4 km/h N22.5 360 -15,6 C 4,5 C
17.05.2021 14:14 16,7 C 6,2 C 28 % 20 % 1003,0 hPa 0,0 l/m 0,2 km/h N22.5 360 -15,0 C 6,2 C
17.05.2021 14:09 16,7 C 5,5 C 28 % 20 % 1003,4 hPa 0,0 l/m 0,2 km/h N22.5 360 -15,6 C 5,5 C
17.05.2021 14:04 16,7 C 5,3 C 28 % 20 % 1003,5 hPa 0,0 l/m 0,2 km/h N22.5 360 -15,8 C 5,3 C
17.05.2021 13:59 16,6 C 5,6 C 28 % 20 % 1003,3 hPa 0,0 l/m 0,2 km/h N22.5 360 -15,5 C 5,6 C
17.05.2021 13:54 16,6 C 4,8 C 28 % 20 % 1003,8 hPa 0,0 l/m 0,2 km/h N22.5 360 -16,2 C 4,8 C
17.05.2021 13:49 16,6 C 4,8 C 28 % 20 % 1003,8 hPa 0,0 l/m 0,2 km/h N22.5 360 -16,2 C 4,8 C
17.05.2021 13:44 16,6 C 4,3 C 28 % 20 % 1004,1 hPa 0,0 l/m 0,2 km/h N22.5 360 -16,6 C 4,3 C
17.05.2021 13:39 16,6 C 4,8 C 28 % 20 % 1003,8 hPa 0,0 l/m 0,2 km/h N22.5 360 -16,2 C 4,8 C
17.05.2021 13:34 16,5 C 4,5 C 28 % 20 % 1004,0 hPa 0,0 l/m 0,2 km/h N22.5 360 -16,5 C 4,5 C
17.05.2021 13:29 16,5 C 4,6 C 28 % 20 % 1003,9 hPa 0,0 l/m 0,2 km/h N22.5 360 -16,4 C 4,6 C
17.05.2021 13:24 16,5 C 4,6 C 28 % 20 % 1003,9 hPa 0,0 l/m 0,2 km/h N22.5 360 -16,4 C 4,6 C
17.05.2021 13:19 16,5 C 4,4 C 28 % 20 % 1004,1 hPa 0,0 l/m 0,2 km/h N22.5 360 -16,5 C 4,4 C
17.05.2021 13:14 16,4 C 4,7 C 28 % 20 % 1003,9 hPa 0,0 l/m 0,2 km/h N22.5 360 -16,3 C 4,7 C
17.05.2021 13:09 16,4 C 4,7 C 27 % 20 % 1003,9 hPa 0,0 l/m 0,2 km/h N22.5 360 -16,3 C 4,7 C
17.05.2021 13:04 16,3 C 4,2 C 27 % 20 % 1004,2 hPa 0,0 l/m 0,2 km/h N22.5 360 -16,7 C 4,2 C
17.05.2021 12:59 16,3 C 3,9 C 28 % 20 % 1004,4 hPa 0,0 l/m 0,2 km/h N22.5 360 -17,0 C 3,9 C
17.05.2021 12:54 16,2 C 4,0 C 28 % 20 % 1004,3 hPa 0,0 l/m 0,2 km/h N22.5 360 -16,9 C 4,0 C
17.05.2021 12:49 16,2 C 3,9 C 28 % 20 % 1004,4 hPa 0,0 l/m 0,2 km/h N22.5 360 -17,0 C 3,9 C
17.05.2021 12:44 16,1 C 3,3 C 28 % 20 % 1004,7 hPa 0,0 l/m 0,2 km/h N22.5 360 -17,5 C 3,3 C
17.05.2021 12:39 16,1 C 3,7 C 28 % 20 % 1004,5 hPa 0,0 l/m 0,2 km/h N22.5 360 -17,1 C 3,7 C
17.05.2021 12:34 16,0 C 3,4 C 28 % 20 % 1004,7 hPa 0,0 l/m 0,2 km/h N22.5 360 -17,4 C 3,4 C
17.05.2021 12:29 15,9 C 3,3 C 30 % 20 % 1004,7 hPa 0,0 l/m 0,2 km/h N22.5 360 -17,5 C 3,3 C
17.05.2021 12:24 15,8 C 3,4 C 30 % 20 % 1004,7 hPa 0,0 l/m 0,2 km/h N22.5 360 -17,4 C 3,4 C
17.05.2021 12:19 15,9 C 3,2 C 29 % 20 % 1004,8 hPa 0,0 l/m 0,2 km/h N22.5 360 -17,5 C 3,2 C
17.05.2021 12:14 16,0 C 3,2 C 28 % 20 % 1003,6 hPa 0,0 l/m 0,2 km/h N22.5 360 -17,5 C 3,2 C
17.05.2021 12:09 15,9 C 3,6 C 29 % 20 % 1003,4 hPa 0,0 l/m 0,2 km/h N22.5 360 -17,2 C 3,6 C
17.05.2021 12:04 16,0 C 3,9 C 28 % 20 % 1004,4 hPa 0,0 l/m 0,2 km/h N22.5 360 -17,0 C 3,9 C
17.05.2021 11:59 15,9 C 4,1 C 29 % 20 % 1003,1 hPa 0,0 l/m 0,2 km/h N22.5 360 -16,8 C 4,1 C
17.05.2021 11:54 15,9 C 4,0 C 29 % 20 % 1003,1 hPa 0,0 l/m 0,2 km/h N22.5 360 -16,9 C 4,0 C
17.05.2021 11:49 15,8 C 3,7 C 30 % 20 % 1003,3 hPa 0,0 l/m 0,2 km/h N22.5 360 -17,1 C 3,7 C
17.05.2021 11:44 15,8 C 3,8 C 30 % 20 % 1003,2 hPa 0,0 l/m 0,2 km/h N22.5 360 -17,0 C 3,8 C
17.05.2021 11:39 15,8 C 3,6 C 30 % 20 % 1003,4 hPa 0,0 l/m 0,2 km/h N22.5 360 -17,2 C 3,6 C
17.05.2021 11:34 15,8 C 3,5 C 30 % 20 % 1003,4 hPa 0,0 l/m 0,2 km/h N22.5 360 -17,3 C 3,5 C
17.05.2021 11:29 15,8 C 3,6 C 30 % 20 % 1003,4 hPa 0,0 l/m 0,2 km/h N22.5 360 -17,2 C 3,6 C
17.05.2021 11:24 15,8 C 3,6 C 30 % 20 % 1003,4 hPa 0,0 l/m 0,2 km/h N22.5 360 -17,2 C 3,6 C
17.05.2021 11:19 15,8 C 3,5 C 30 % 20 % 1003,4 hPa 0,0 l/m 0,2 km/h N22.5 360 -17,3 C 3,5 C
17.05.2021 11:14 15,8 C 3,6 C 30 % 20 % 1003,4 hPa 0,0 l/m 0,2 km/h N22.5 360 -17,2 C 3,6 C
17.05.2021 11:09 15,8 C 3,5 C 30 % 20 % 1003,4 hPa 0,0 l/m 0,2 km/h N22.5 360 -17,3 C 3,5 C
17.05.2021 11:04 15,9 C 3,5 C 30 % 20 % 1003,4 hPa 0,0 l/m 0,2 km/h N22.5 360 -17,3 C 3,5 C
17.05.2021 10:59 15,9 C 3,3 C 30 % 20 % 1003,5 hPa 0,0 l/m 0,2 km/h N22.5 360 -17,5 C 3,3 C
17.05.2021 10:54 15,9 C 3,4 C 30 % 20 % 1003,5 hPa 0,0 l/m 0,2 km/h N22.5 360 -17,4 C 3,4 C
17.05.2021 10:49 15,9 C 3,3 C 30 % 20 % 1003,5 hPa 0,0 l/m 0,2 km/h N22.5 360 -17,5 C 3,3 C
17.05.2021 10:44 15,9 C 3,4 C 30 % 20 % 1003,5 hPa 0,0 l/m 0,2 km/h N22.5 360 -17,4 C 3,4 C
17.05.2021 10:39 15,9 C 3,3 C 30 % 20 % 1003,5 hPa 0,0 l/m 0,2 km/h N22.5 360 -17,5 C 3,3 C
17.05.2021 10:34 16,0 C 3,4 C 29 % 20 % 1003,5 hPa 0,0 l/m 0,2 km/h N22.5 360 -17,4 C 3,4 C
17.05.2021 10:29 16,0 C 3,5 C 29 % 20 % 1003,4 hPa 0,0 l/m 0,2 km/h N22.5 360 -17,3 C 3,5 C
17.05.2021 10:24 16,0 C 3,4 C 29 % 20 % 1003,5 hPa 0,0 l/m 0,2 km/h N22.5 360 -17,4 C 3,4 C
17.05.2021 10:19 16,0 C 3,7 C 29 % 21 % 1003,3 hPa 0,0 l/m 0,2 km/h N22.5 360 -16,6 C 3,7 C
17.05.2021 10:14 16,0 C 3,6 C 29 % 21 % 1003,4 hPa 0,0 l/m 0,2 km/h N22.5 360 -16,6 C 3,6 C
17.05.2021 10:09 16,0 C 3,5 C 29 % 21 % 1003,4 hPa 0,0 l/m 0,2 km/h N22.5 360 -16,7 C 3,5 C
17.05.2021 10:04 16,0 C 3,5 C 28 % 20 % 1003,4 hPa 0,0 l/m 0,2 km/h N22.5 360 -17,3 C 3,5 C
17.05.2021 09:59 16,0 C 3,4 C 29 % 21 % 1003,5 hPa 0,0 l/m 0,2 km/h N22.5 360 -16,8 C 3,4 C
17.05.2021 09:54 16,0 C 3,5 C 29 % 21 % 1003,4 hPa 0,0 l/m 0,2 km/h N22.5 360 -16,7 C 3,5 C
17.05.2021 09:49 16,0 C 3,6 C 29 % 21 % 1003,4 hPa 0,0 l/m 0,2 km/h N22.5 360 -16,6 C 3,6 C
17.05.2021 09:44 16,0 C 3,6 C 29 % 23 % 1003,4 hPa 0,0 l/m 0,2 km/h N22.5 360 -15,5 C 3,6 C
17.05.2021 09:39 15,9 C 3,6 C 29 % 23 % 1003,4 hPa 0,0 l/m 0,2 km/h N22.5 360 -15,5 C 3,6 C
17.05.2021 09:34 15,9 C 3,4 C 29 % 23 % 1003,5 hPa 0,0 l/m 0,2 km/h N22.5 360 -15,7 C 3,4 C
17.05.2021 09:29 15,9 C 3,2 C 29 % 23 % 1003,6 hPa 0,0 l/m 0,2 km/h N22.5 360 -15,9 C 3,2 C
17.05.2021 09:24 15,8 C 3,3 C 29 % 23 % 1003,5 hPa 0,0 l/m 0,2 km/h N22.5 360 -15,8 C 3,3 C
17.05.2021 09:19 15,8 C 3,5 C 29 % 23 % 1003,4 hPa 0,0 l/m 0,2 km/h N22.5 360 -15,6 C 3,5 C
17.05.2021 09:14 15,8 C 3,3 C 29 % 23 % 1003,5 hPa 0,0 l/m 0,2 km/h N22.5 360 -15,8 C 3,3 C
17.05.2021 09:09 15,8 C 3,4 C 29 % 25 % 1003,5 hPa 0,0 l/m 0,2 km/h N22.5 360 -14,7 C 3,4 C
17.05.2021 09:04 15,8 C 3,2 C 29 % 23 % 1003,6 hPa 0,0 l/m 0,2 km/h N22.5 360 -15,9 C 3,2 C
17.05.2021 08:59 15,8 C 3,3 C 29 % 25 % 1003,5 hPa 0,0 l/m 0,2 km/h N22.5 360 -14,8 C 3,3 C
17.05.2021 08:54 15,8 C 3,1 C 30 % 25 % 1003,7 hPa 0,0 l/m 0,2 km/h N22.5 360 -15,0 C 3,1 C
17.05.2021 08:49 15,7 C 3,2 C 30 % 25 % 1003,6 hPa 0,0 l/m 0,2 km/h N22.5 360 -14,9 C 3,2 C
17.05.2021 08:44 15,7 C 3,1 C 30 % 25 % 1003,7 hPa 0,0 l/m 0,2 km/h N22.5 360 -15,0 C 3,1 C
17.05.2021 08:39 15,7 C 3,1 C 30 % 25 % 1003,7 hPa 0,0 l/m 0,2 km/h N22.5 360 -15,0 C 3,1 C
17.05.2021 08:34 15,7 C 3,1 C 30 % 25 % 1003,7 hPa 0,0 l/m 0,2 km/h N22.5 360 -15,0 C 3,1 C
17.05.2021 08:29 15,6 C 3,1 C 30 % 25 % 1003,7 hPa 0,0 l/m 0,2 km/h N22.5 360 -15,0 C 3,1 C
17.05.2021 08:24 15,6 C 3,0 C 30 % 26 % 1003,7 hPa 0,0 l/m 0,2 km/h N22.5 360 -14,6 C 3,0 C
17.05.2021 08:19 15,6 C 3,0 C 30 % 25 % 1003,7 hPa 0,0 l/m 0,2 km/h N22.5 360 -15,1 C 3,0 C
17.05.2021 08:14 15,6 C 3,0 C 30 % 26 % 1003,7 hPa 0,0 l/m 0,2 km/h N22.5 360 -14,6 C 3,0 C
17.05.2021 08:09 15,6 C 3,1 C 30 % 26 % 1002,5 hPa 0,0 l/m 0,2 km/h N22.5 360 -14,5 C 3,1 C
17.05.2021 08:04 15,5 C 3,1 C 30 % 26 % 1002,5 hPa 0,0 l/m 0,2 km/h N22.5 360 -14,5 C 3,1 C
17.05.2021 07:59 15,5 C 3,1 C 30 % 26 % 1002,5 hPa 0,0 l/m 0,2 km/h N22.5 360 -14,5 C 3,1 C
17.05.2021 07:54 15,5 C 3,1 C 30 % 26 % 1002,5 hPa 0,0 l/m 0,2 km/h N22.5 360 -14,5 C 3,1 C
17.05.2021 07:49 15,5 C 3,1 C 30 % 26 % 1002,5 hPa 0,0 l/m 0,2 km/h N22.5 360 -14,5 C 3,1 C
17.05.2021 07:44 15,4 C 3,1 C 30 % 26 % 1002,5 hPa 0,0 l/m 0,2 km/h N22.5 360 -14,5 C 3,1 C
17.05.2021 07:39 15,4 C 3,1 C 30 % 26 % 1002,5 hPa 0,0 l/m 0,2 km/h N22.5 360 -14,5 C 3,1 C
17.05.2021 07:34 15,3 C 2,9 C 30 % 27 % 1002,6 hPa 0,0 l/m 0,2 km/h N22.5 360 -14,2 C 2,9 C
17.05.2021 07:29 15,3 C 2,9 C 30 % 27 % 1002,6 hPa 0,0 l/m 0,2 km/h N22.5 360 -14,2 C 2,9 C
17.05.2021 07:24 15,3 C 3,3 C 30 % 27 % 1002,4 hPa 0,0 l/m 0,2 km/h N22.5 360 -13,9 C 3,3 C
17.05.2021 07:19 15,2 C 3,2 C 30 % 27 % 1002,4 hPa 0,0 l/m 0,2 km/h N22.5 360 -14,0 C 3,2 C
17.05.2021 07:14 15,2 C 3,2 C 30 % 27 % 1002,4 hPa 0,0 l/m 0,2 km/h N22.5 360 -14,0 C 3,2 C
17.05.2021 07:09 15,2 C 3,3 C 31 % 27 % 1002,4 hPa 0,0 l/m 0,2 km/h N22.5 360 -13,9 C 3,3 C
17.05.2021 07:04 15,0 C 3,3 C 31 % 28 % 1002,4 hPa 0,0 l/m 0,2 km/h N22.5 360 -13,4 C 3,3 C
17.05.2021 06:59 15,0 C 3,5 C 31 % 28 % 1002,2 hPa 0,0 l/m 0,2 km/h N22.5 360 -13,3 C 3,5 C
17.05.2021 06:54 15,0 C 3,5 C 31 % 28 % 1002,2 hPa 0,0 l/m 0,2 km/h N22.5 360 -13,3 C 3,5 C
17.05.2021 06:49 15,0 C 3,5 C 32 % 28 % 1002,2 hPa 0,0 l/m 0,2 km/h N22.5 360 -13,3 C 3,5 C
17.05.2021 06:44 14,9 C 3,6 C 32 % 28 % 1002,2 hPa 0,0 l/m 0,2 km/h N22.5 360 -13,2 C 3,6 C
17.05.2021 06:39 14,8 C 3,7 C 33 % 28 % 1002,1 hPa 0,0 l/m 0,2 km/h N22.5 360 -13,1 C 3,7 C
17.05.2021 06:34 14,8 C 3,8 C 33 % 28 % 1002,1 hPa 0,0 l/m 0,2 km/h N22.5 360 -13,0 C 3,8 C
17.05.2021 06:29 14,8 C 3,8 C 34 % 28 % 1002,1 hPa 0,0 l/m 0,2 km/h N22.5 360 -13,0 C 3,8 C
17.05.2021 06:24 14,8 C 3,8 C 34 % 28 % 1002,1 hPa 0,0 l/m 0,2 km/h N22.5 360 -13,0 C 3,8 C
17.05.2021 06:19 14,8 C 4,0 C 34 % 27 % 1001,9 hPa 0,0 l/m 0,2 km/h N22.5 360 -13,3 C 4,0 C
17.05.2021 06:14 14,8 C 4,0 C 34 % 27 % 1001,9 hPa 0,0 l/m 0,2 km/h N22.5 360 -13,3 C 4,0 C
17.05.2021 06:09 14,8 C 4,1 C 34 % 27 % 1001,9 hPa 0,0 l/m 0,2 km/h N22.5 360 -13,2 C 4,1 C
17.05.2021 06:04 14,8 C 4,0 C 34 % 27 % 1001,9 hPa 0,0 l/m 0,2 km/h N22.5 360 -13,3 C 4,0 C
17.05.2021 05:59 14,8 C 4,0 C 34 % 27 % 1001,9 hPa 0,0 l/m 0,2 km/h N22.5 360 -13,3 C 4,0 C
17.05.2021 05:54 14,8 C 4,1 C 34 % 27 % 1001,9 hPa 0,0 l/m 0,2 km/h N22.5 360 -13,2 C 4,1 C
17.05.2021 05:49 14,8 C 4,0 C 34 % 27 % 1001,9 hPa 0,0 l/m 0,2 km/h N22.5 360 -13,3 C 4,0 C
17.05.2021 05:44 14,9 C 4,1 C 34 % 27 % 1001,9 hPa 0,0 l/m 0,2 km/h N22.5 360 -13,2 C 4,1 C
17.05.2021 05:39 14,9 C 4,1 C 34 % 27 % 1000,7 hPa 0,0 l/m 0,2 km/h N22.5 360 -13,2 C 4,1 C
17.05.2021 05:34 14,9 C 4,1 C 34 % 27 % 1000,7 hPa 0,0 l/m 0,2 km/h N22.5 360 -13,2 C 4,1 C
17.05.2021 05:29 14,9 C 4,1 C 34 % 27 % 1000,7 hPa 0,0 l/m 0,2 km/h N22.5 360 -13,2 C 4,1 C
17.05.2021 05:24 14,9 C 4,2 C 34 % 27 % 1000,6 hPa 0,0 l/m 0,2 km/h N22.5 360 -13,1 C 4,2 C
17.05.2021 05:19 14,9 C 4,2 C 34 % 27 % 1000,6 hPa 0,0 l/m 0,2 km/h N22.5 360 -13,1 C 4,2 C
17.05.2021 05:14 14,9 C 4,2 C 34 % 27 % 1000,6 hPa 0,0 l/m 0,2 km/h N22.5 360 -13,1 C 4,2 C
17.05.2021 05:09 14,9 C 4,2 C 34 % 27 % 1000,6 hPa 0,0 l/m 0,2 km/h N22.5 360 -13,1 C 4,2 C
17.05.2021 05:04 15,0 C 4,6 C 33 % 27 % 1000,4 hPa 0,0 l/m 0,2 km/h N22.5 360 -12,8 C 4,6 C
17.05.2021 04:59 15,0 C 4,6 C 33 % 27 % 1000,4 hPa 0,0 l/m 0,2 km/h N22.5 360 -12,8 C 4,6 C
17.05.2021 04:54 15,0 C 4,8 C 34 % 27 % 1000,3 hPa 0,0 l/m 0,2 km/h N22.5 360 -12,6 C 4,8 C
17.05.2021 04:49 15,0 C 4,8 C 34 % 27 % 1000,3 hPa 0,0 l/m 0,2 km/h N22.5 360 -12,6 C 4,8 C
17.05.2021 04:38 15,0 C 4,8 C 34 % 27 % 1000,3 hPa 0,0 l/m 5,0 km/h N22.5 350 -12,6 C 3,9 C
17.05.2021 04:33 15,0 C 4,9 C 34 % 27 % 1000,2 hPa 0,0 l/m 0,0 km/h N22.5 350 -12,5 C 4,9 C
17.05.2021 04:28 15,0 C 4,9 C 34 % 26 % 1000,2 hPa 0,0 l/m 7,3 km/h N67.5 350 -13,0 C 3,2 C
17.05.2021 04:23 15,0 C 4,9 C 34 % 26 % 1000,2 hPa 0,0 l/m 5,5 km/h N67.5 360 -13,0 C 3,8 C
17.05.2021 04:18 15,0 C 5,0 C 34 % 25 % 1000,1 hPa 0,0 l/m 3,6 km/h N-NW22.5 345 -13,4 C 5,0 C
17.05.2021 04:13 15,0 C 5,0 C 34 % 25 % 1000,1 hPa 0,0 l/m 6,4 km/h N22.5 360 -13,4 C 3,6 C
17.05.2021 04:08 15,0 C 5,0 C 34 % 25 % 1000,1 hPa 0,0 l/m 8,6 km/h N22.5 360 -13,4 C 3,0 C
17.05.2021 04:03 14,9 C 5,0 C 35 % 25 % 1000,1 hPa 0,0 l/m 11,0 km/h N67.5 355 -13,4 C 2,4 C
17.05.2021 03:58 14,9 C 5,0 C 35 % 25 % 1000,1 hPa 0,0 l/m 10,5 km/h N67.5 5 -13,4 C 2,6 C
17.05.2021 03:53 14,9 C 4,9 C 35 % 26 % 1000,2 hPa 0,0 l/m 13,1 km/h N22.5 360 -13,0 C 1,9 C
17.05.2021 03:48 14,9 C 4,9 C 35 % 25 % 1000,2 hPa 0,0 l/m 17,7 km/h N22.5 10 -13,4 C 1,2 C
17.05.2021 03:38 14,8 C 5,2 C 36 % 25 % 1000,0 hPa 0,0 l/m 13,3 km/h N-NO67.5 15 -13,2 C 2,3 C
17.05.2021 03:33 14,8 C 5,4 C 36 % 25 % 999,9 hPa 0,0 l/m 9,2 km/h N22.5 10 -13,0 C 3,3 C
17.05.2021 03:28 14,8 C 5,9 C 37 % 25 % 999,6 hPa 0,0 l/m 0,8 km/h N-NW22.5 335 -12,6 C 5,9 C
17.05.2021 03:23 14,7 C 6,9 C 37 % 25 % 999,0 hPa 0,0 l/m 3,8 km/h SW22.5 225 -11,7 C 6,9 C
17.05.2021 03:18 14,7 C 6,9 C 38 % 25 % 999,0 hPa 0,0 l/m 4,3 km/h SW22.5 225 -11,7 C 6,9 C
17.05.2021 03:13 14,7 C 6,9 C 38 % 25 % 999,0 hPa 0,0 l/m 7,5 km/h S22.5 185 -11,7 C 5,5 C
17.05.2021 03:08 14,7 C 6,8 C 38 % 25 % 999,1 hPa 0,0 l/m 6,2 km/h SW22.5 220 -11,8 C 5,7 C
17.05.2021 03:03 14,7 C 6,8 C 38 % 25 % 999,1 hPa 0,0 l/m 4,2 km/h S-SW22.5 205 -11,8 C 6,8 C
17.05.2021 02:58 14,6 C 6,8 C 38 % 25 % 999,1 hPa 0,0 l/m 4,8 km/h SW 225 -11,8 C 6,2 C
17.05.2021 02:53 14,6 C 6,9 C 39 % 23 % 999,0 hPa 0,0 l/m 8,0 km/h SW 225 -12,8 C 5,4 C
17.05.2021 02:48 14,6 C 6,9 C 39 % 23 % 999,0 hPa 0,0 l/m 7,4 km/h SW22.5 225 -12,8 C 5,5 C
17.05.2021 02:43 14,5 C 6,9 C 39 % 23 % 999,0 hPa 0,0 l/m 8,5 km/h SW22.5 230 -12,8 C 5,2 C
17.05.2021 02:38 14,6 C 6,9 C 39 % 21 % 999,0 hPa 0,0 l/m 11,5 km/h SW22.5 225 -13,9 C 4,6 C
17.05.2021 02:33 14,6 C 7,0 C 38 % 20 % 998,9 hPa 0,0 l/m 6,3 km/h S-SW45 195 -14,4 C 5,9 C
17.05.2021 02:28 14,5 C 7,0 C 38 % 20 % 998,9 hPa 0,0 l/m 6,3 km/h SW22.5 230 -14,4 C 5,9 C
17.05.2021 02:23 14,5 C 7,0 C 39 % 20 % 1000,1 hPa 0,0 l/m 9,0 km/h SW22.5 215 -14,4 C 5,3 C
17.05.2021 02:18 14,4 C 7,0 C 40 % 20 % 1000,1 hPa 0,0 l/m 12,1 km/h S-SW22.5 205 -14,4 C 4,7 C
17.05.2021 02:13 14,4 C 7,1 C 40 % 21 % 1000,1 hPa 0,0 l/m 11,1 km/h SW22.5 230 -13,7 C 5,0 C
17.05.2021 02:08 14,5 C 7,1 C 39 % 21 % 1000,1 hPa 0,0 l/m 13,6 km/h S-SW45 210 -13,7 C 4,5 C
17.05.2021 02:03 14,5 C 6,8 C 40 % 21 % 1000,2 hPa 0,0 l/m 6,1 km/h S45 185 -14,0 C 5,8 C
17.05.2021 01:58 14,4 C 6,9 C 40 % 23 % 1000,2 hPa 0,0 l/m 8,4 km/h SW22.5 220 -12,8 C 5,3 C
17.05.2021 01:53 14,4 C 6,8 C 40 % 21 % 1000,2 hPa 0,0 l/m 10,1 km/h SW22.5 225 -14,0 C 4,8 C
17.05.2021 01:48 14,4 C 7,0 C 39 % 20 % 1000,1 hPa 0,0 l/m 11,2 km/h S-SW45 195 -14,4 C 4,8 C
17.05.2021 01:43 14,4 C 6,7 C 40 % 20 % 1000,3 hPa 0,0 l/m 6,6 km/h S-SW45 195 -14,6 C 5,5 C
17.05.2021 01:38 14,4 C 6,7 C 40 % 20 % 1000,3 hPa 0,0 l/m 12,1 km/h SW22.5 220 -14,6 C 4,3 C
17.05.2021 01:33 14,4 C 7,5 C 40 % 20 % 999,8 hPa 0,0 l/m 12,5 km/h S-SW45 195 -14,0 C 5,2 C
17.05.2021 01:28 14,4 C 7,3 C 40 % 20 % 999,9 hPa 0,0 l/m 14,8 km/h S-SW22.5 205 -14,1 C 4,6 C
17.05.2021 01:23 14,4 C 7,4 C 39 % 20 % 999,9 hPa 0,0 l/m 14,0 km/h S-SW22.5 210 -14,1 C 4,9 C
17.05.2021 01:18 14,4 C 7,4 C 39 % 20 % 999,9 hPa 0,0 l/m 12,8 km/h SW22.5 230 -14,1 C 5,0 C
17.05.2021 01:13 14,4 C 7,1 C 39 % 20 % 1000,1 hPa 0,0 l/m 13,9 km/h S-SW45 205 -14,3 C 4,5 C
17.05.2021 01:08 14,4 C 7,0 C 39 % 20 % 1000,1 hPa 0,0 l/m 11,6 km/h SW22.5 230 -14,4 C 4,7 C
17.05.2021 01:03 14,4 C 7,0 C 39 % 20 % 1000,1 hPa 0,0 l/m 10,6 km/h S-SW22.5 205 -14,4 C 4,9 C
17.05.2021 00:58 14,3 C 6,7 C 40 % 20 % 1000,3 hPa 0,0 l/m 11,1 km/h S-SW22.5 210 -14,6 C 4,5 C
17.05.2021 00:53 14,3 C 7,0 C 40 % 20 % 1000,1 hPa 0,0 l/m 8,4 km/h SW22.5 225 -14,4 C 5,4 C
17.05.2021 00:48 14,2 C 7,2 C 40 % 20 % 1001,2 hPa 0,0 l/m 13,3 km/h SW22.5 225 -14,2 C 4,7 C
17.05.2021 00:43 14,2 C 7,4 C 41 % 20 % 1001,1 hPa 0,0 l/m 15,9 km/h SW22.5 215 -14,1 C 4,6 C
17.05.2021 00:38 14,2 C 7,5 C 41 % 20 % 1001,0 hPa 0,0 l/m 17,6 km/h SW22.5 225 -14,0 C 4,5 C
17.05.2021 00:33 14,2 C 7,3 C 41 % 20 % 1001,1 hPa 0,0 l/m 17,7 km/h SW22.5 220 -14,1 C 4,2 C
17.05.2021 00:28 14,2 C 7,4 C 41 % 20 % 1001,1 hPa 0,0 l/m 23,5 km/h SW22.5 225 -14,1 C 3,7 C
17.05.2021 00:23 14,3 C 7,3 C 41 % 20 % 1001,1 hPa 0,0 l/m 19,3 km/h SW22.5 215 -14,1 C 4,0 C
17.05.2021 00:18 14,3 C 7,3 C 42 % 20 % 1001,1 hPa 0,0 l/m 20,4 km/h SW22.5 215 -14,1 C 3,9 C
17.05.2021 00:13 14,3 C 7,3 C 42 % 20 % 1001,1 hPa 0,0 l/m 23,9 km/h SW22.5 220 -14,1 C 3,6 C
17.05.2021 00:08 14,3 C 7,3 C 41 % 20 % 1001,1 hPa 0,0 l/m 26,8 km/h SW22.5 215 -14,1 C 3,3 C
17.05.2021 00:03 14,4 C 7,1 C 41 % 20 % 1001,2 hPa 0,0 l/m 21,7 km/h S-SW22.5 210 -14,3 C 3,5 C
16.05.2021 23:58 14,4 C 7,0 C 42 % 20 % 1001,3 hPa 0,0 l/m 23,0 km/h S-SW22.5 210 -14,4 C 3,3 C
16.05.2021 23:53 14,4 C 7,1 C 41 % 20 % 1001,2 hPa 0,0 l/m 27,9 km/h SW22.5 215 -14,3 C 3,0 C
16.05.2021 23:48 14,4 C 7,1 C 41 % 20 % 1001,2 hPa 0,0 l/m 22,0 km/h SW22.5 215 -14,3 C 3,5 C
16.05.2021 23:43 14,4 C 7,1 C 41 % 20 % 1001,2 hPa 0,0 l/m 22,0 km/h SW22.5 215 -14,3 C 3,5 C
16.05.2021 23:38 14,4 C 7,1 C 41 % 20 % 1001,2 hPa 0,0 l/m 20,0 km/h SW22.5 225 -14,3 C 3,7 C
16.05.2021 23:33 14,4 C 7,2 C 42 % 20 % 1001,2 hPa 0,0 l/m 25,2 km/h SW22.5 220 -14,2 C 3,3 C
16.05.2021 23:28 14,4 C 7,2 C 42 % 20 % 1001,2 hPa 0,0 l/m 24,9 km/h S-SW22.5 210 -14,2 C 3,4 C
16.05.2021 23:23 14,4 C 7,1 C 42 % 20 % 1001,2 hPa 0,0 l/m 23,6 km/h SW22.5 225 -14,3 C 3,3 C
16.05.2021 23:18 14,5 C 7,3 C 41 % 20 % 1001,1 hPa 0,0 l/m 24,4 km/h SW22.5 230 -14,1 C 3,5 C
16.05.2021 23:13 14,5 C 7,1 C 41 % 20 % 1001,2 hPa 0,0 l/m 22,9 km/h SW22.5 220 -14,3 C 3,4 C
16.05.2021 23:08 14,5 C 7,1 C 41 % 20 % 1001,2 hPa 0,0 l/m 27,6 km/h SW45 215 -14,3 C 3,0 C
16.05.2021 23:03 14,5 C 7,2 C 41 % 20 % 1001,2 hPa 0,0 l/m 26,3 km/h SW22.5 225 -14,2 C 3,2 C
16.05.2021 22:58 14,6 C 7,2 C 40 % 20 % 1001,2 hPa 0,0 l/m 28,6 km/h S-SW45 205 -14,2 C 3,0 C
16.05.2021 22:53 14,6 C 7,0 C 40 % 20 % 1001,3 hPa 0,0 l/m 27,6 km/h SW22.5 230 -14,4 C 2,9 C
16.05.2021 22:48 14,6 C 7,1 C 40 % 20 % 1001,2 hPa 0,0 l/m 23,7 km/h SW22.5 225 -14,3 C 3,3 C
16.05.2021 22:43 14,5 C 7,1 C 40 % 20 % 1001,2 hPa 0,0 l/m 27,3 km/h SW22.5 225 -14,3 C 3,0 C
16.05.2021 22:38 14,6 C 7,0 C 40 % 20 % 1002,5 hPa 0,0 l/m 21,6 km/h SW22.5 220 -14,4 C 3,4 C
16.05.2021 22:33 14,6 C 6,8 C 40 % 20 % 1002,6 hPa 0,0 l/m 18,4 km/h SW45 215 -14,5 C 3,5 C
16.05.2021 22:28 14,6 C 6,9 C 40 % 20 % 1002,5 hPa 0,0 l/m 22,6 km/h SW22.5 225 -14,5 C 3,2 C
16.05.2021 22:23 14,7 C 6,9 C 40 % 20 % 1002,5 hPa 0,0 l/m 19,0 km/h SW22.5 225 -14,5 C 3,6 C
16.05.2021 22:18 14,7 C 7,0 C 40 % 20 % 1002,5 hPa 0,0 l/m 23,6 km/h SW22.5 230 -14,4 C 3,2 C
16.05.2021 22:13 14,7 C 7,0 C 40 % 20 % 1001,3 hPa 0,0 l/m 15,6 km/h SW22.5 225 -14,4 C 4,1 C
16.05.2021 22:08 14,7 C 7,1 C 40 % 20 % 1002,4 hPa 0,0 l/m 17,0 km/h SW45 215 -14,3 C 4,1 C
16.05.2021 22:03 14,7 C 7,1 C 40 % 20 % 1002,4 hPa 0,0 l/m 21,8 km/h SW22.5 230 -14,3 C 3,5 C
16.05.2021 21:58 14,7 C 7,1 C 40 % 20 % 1002,4 hPa 0,0 l/m 19,5 km/h S-SW22.5 210 -14,3 C 3,8 C
16.05.2021 21:53 14,7 C 7,1 C 40 % 20 % 1002,4 hPa 0,0 l/m 24,6 km/h S-SW22.5 210 -14,3 C 3,3 C
16.05.2021 21:48 14,7 C 7,1 C 40 % 20 % 1002,4 hPa 0,0 l/m 17,7 km/h SW22.5 225 -14,3 C 4,0 C
16.05.2021 21:43 14,8 C 7,1 C 40 % 20 % 1002,4 hPa 0,0 l/m 24,4 km/h SW45 220 -14,3 C 3,3 C
16.05.2021 21:38 14,8 C 7,2 C 40 % 20 % 1002,4 hPa 0,0 l/m 23,8 km/h SW22.5 230 -14,2 C 3,5 C
16.05.2021 21:33 14,8 C 7,2 C 41 % 20 % 1002,4 hPa 0,0 l/m 24,5 km/h SW22.5 230 -14,2 C 3,4 C
16.05.2021 21:28 14,8 C 7,1 C 41 % 20 % 1002,4 hPa 0,0 l/m 22,9 km/h SW22.5 215 -14,3 C 3,4 C
16.05.2021 21:23 14,8 C 7,1 C 41 % 20 % 1002,4 hPa 0,0 l/m 28,0 km/h SW22.5 220 -14,3 C 3,0 C
16.05.2021 21:18 14,8 C 7,2 C 41 % 20 % 1002,4 hPa 0,0 l/m 24,3 km/h SW22.5 220 -14,2 C 3,4 C
16.05.2021 21:13 14,8 C 7,1 C 41 % 20 % 1002,4 hPa 0,0 l/m 23,8 km/h SW22.5 220 -14,3 C 3,3 C
16.05.2021 21:08 14,8 C 7,1 C 41 % 20 % 1002,4 hPa 0,0 l/m 25,6 km/h SW22.5 225 -14,3 C 3,2 C
16.05.2021 21:03 14,9 C 7,1 C 40 % 20 % 1002,4 hPa 0,0 l/m 22,0 km/h S-SW22.5 210 -14,3 C 3,5 C
_ Min-Zeit 00:48 07:34 13:09 20:09 02:33 - 19:24 - - 12:19 03:48
Minimum _ 14,2 C 2,9 C 27 % 20 % 998,9 hPa - 0,0 km/h - - -17,5 C 1,2 C
_ Max-Zeit 14:59 14:59 00:18 07:04 20:09 20:09 22:58 - - 03:23 14:59
Maximum _ 17,0 C 10,0 C 42 % 28 % 1006,1 hPa 0,0 l/m 28,6 km/h
S-SW
- - -11,7 C 10,0 C
Durchschnitt _ 15,5 C 5,5 C 34 % 22 % 1002,5 hPa #0,0 l/m 7,7 km/h N - -14,7 C 4,2 C